| time (UTC) | temp F | wind direction | speed MPH | gust MPH | rain 1hr in | rain 24hr in | rain mn in | humidity % | barometer mb |
| 20260901191605 | 68 | 68 | 0.0 | 0.0 | 0.00 | 0.00 | 0.00 | 68 | 1019.9 |
| 20260901190127 | 69 | 68 | 0.0 | 1.0 | 0.00 | 0.00 | 0.00 | 66 | 1019.8 |
| 20260901184557 | 70 | 70 | 0.0 | 1.0 | 0.00 | 0.00 | 0.00 | 64 | 1019.5 |
| 20260901183052 | 72 | 23 | 0.0 | 1.0 | 0.00 | 0.00 | 0.00 | 61 | 1019.4 |
| 20260901181553 | 74 | 325 | 0.0 | 2.0 | 0.00 | 0.00 | 0.00 | 56 | 1019.4 |
| 20260901180104 | 76 | 61 | 0.0 | 4.0 | 0.00 | 0.00 | 0.00 | 52 | 1019.3 |
| 20260901174559 | 77 | 297 | 0.0 | 2.0 | 0.00 | 0.00 | 0.00 | 51 | 1019.1 |
| 20260901173056 | 77 | 62 | 0.0 | 4.0 | 0.00 | 0.00 | 0.00 | 51 | 1019.0 |
| 20260901171542 | 77 | 30 | 0.0 | 3.0 | 0.00 | 0.00 | 0.00 | 51 | 1019.0 |
| 20260901170159 | 76 | 40 | 0.0 | 2.0 | 0.00 | 0.00 | 0.00 | 52 | 1018.9 |
| 20260901164554 | 77 | 55 | 0.0 | 1.0 | 0.00 | 0.00 | 0.00 | 51 | 1019.0 |
| 20260901163107 | 78 | 53 | 0.0 | 2.0 | 0.00 | 0.00 | 0.00 | 47 | 1018.8 |
| 20260901161600 | 79 | 50 | 0.0 | 4.0 | 0.00 | 0.00 | 0.00 | 45 | 1018.9 |
| 20260901154604 | 80 | 20 | 0.0 | 3.0 | 0.00 | 0.00 | 0.00 | 44 | 1019.1 |
| 20260901153124 | 79 | 56 | 1.0 | 5.0 | 0.00 | 0.00 | 0.00 | 44 | 1019.2 |
| 20260901151651 | 80 | 47 | 1.0 | 4.0 | 0.00 | 0.00 | 0.00 | 46 | 1019.3 |
| 20260901150149 | 80 | 232 | 0.0 | 2.0 | 0.00 | 0.00 | 0.00 | 45 | 1019.3 |
| 20260901144651 | 80 | 264 | 0.0 | 5.0 | 0.00 | 0.00 | 0.00 | 45 | 1019.3 |
| 20260901143105 | 80 | 304 | 0.0 | 4.0 | 0.00 | 0.00 | 0.00 | 44 | 1019.4 |
| 20260901141552 | 80 | 62 | 0.0 | 3.0 | 0.00 | 0.00 | 0.00 | 44 | 1019.4 |
| 20260901134557 | 79 | 324 | 1.0 | 6.0 | 0.00 | 0.00 | 0.00 | 48 | 1019.7 |
| 20260901133053 | 80 | 287 | 0.0 | 2.0 | 0.00 | 0.00 | 0.00 | 42 | 1019.8 |
| 20260901131630 | 80 | 288 | 0.0 | 3.0 | 0.00 | 0.00 | 0.00 | 46 | 1020.2 |
| 20260901124603 | 80 | 22 | 1.0 | 6.0 | 0.00 | 0.00 | 0.00 | 45 | 1020.3 |
| 20260901123104 | 79 | 20 | 0.0 | 3.0 | 0.00 | 0.00 | 0.00 | 49 | 1020.5 |
| 20260901121549 | 78 | 263 | 2.0 | 7.0 | 0.00 | 0.00 | 0.00 | 53 | 1020.7 |
| 20260901120055 | 77 | 269 | 3.0 | 7.0 | 0.00 | 0.00 | 0.00 | 51 | 1020.7 |
| 20260901114556 | 77 | 209 | 0.0 | 4.0 | 0.00 | 0.00 | 0.00 | 56 | 1020.7 |
| 20260901113109 | 78 | 167 | 0.0 | 3.0 | 0.00 | 0.00 | 0.00 | 56 | 1020.8 |
| 20260901111605 | 76 | 175 | 1.0 | 4.0 | 0.00 | 0.00 | 0.00 | 59 | 1020.9 |
| 20260901110106 | 74 | 274 | 0.0 | 3.0 | 0.00 | 0.00 | 0.00 | 64 | 1021.0 |
| 20260901104551 | 74 | 24 | 0.0 | 3.0 | 0.00 | 0.00 | 0.00 | 63 | 1021.2 |
| 20260901103051 | 74 | 312 | 0.0 | 2.0 | 0.00 | 0.00 | 0.00 | 63 | 1021.3 |
| 20260901101608 | 73 | 348 | 0.0 | 3.0 | 0.00 | 0.00 | 0.00 | 64 | 1021.4 |
| 20260901094607 | 71 | 68 | 2.0 | 5.0 | 0.00 | 0.00 | 0.00 | 67 | 1021.6 |
| 20260901093104 | 71 | 39 | 2.0 | 5.0 | 0.00 | 0.00 | 0.00 | 68 | 1021.8 |
| 20260901091550 | 70 | 1 | 0.0 | 3.0 | 0.00 | 0.00 | 0.00 | 69 | 1021.8 |
| 20260901084604 | 69 | 63 | 0.0 | 2.0 | 0.00 | 0.00 | 0.00 | 75 | 1021.8 |
| 20260901083107 | 67 | 153 | 0.0 | 2.0 | 0.00 | 0.00 | 0.00 | 78 | 1021.7 |
| 20260901081603 | 66 | 239 | 0.0 | 2.0 | 0.00 | 0.00 | 0.00 | 82 | 1021.7 |
| 20260901080046 | 64 | 228 | 0.0 | 4.0 | 0.00 | 0.00 | 0.00 | 85 | 1021.7 |
| 20260901074602 | 62 | 204 | 0.0 | 2.0 | 0.00 | 0.00 | 0.00 | 87 | 1021.7 |
| 20260901073104 | 61 | 207 | 0.0 | 3.0 | 0.00 | 0.00 | 0.00 | 93 | 1021.6 |
| 20260901071557 | 58 | 198 | 0.0 | 2.0 | 0.00 | 0.00 | 0.00 | 96 | 1021.6 |
| 20260901070107 | 56 | 200 | 0.0 | 1.0 | 0.00 | 0.00 | 0.00 | 98 | 1021.6 |
| 20260901064601 | 54 | 173 | 0.0 | 0.0 | 0.00 | 0.00 | 0.00 | 98 | 1021.7 |
| 20260901063108 | 53 | 198 | 0.0 | 0.0 | 0.00 | 0.00 | 0.00 | 98 | 1021.7 |
| 20260901061555 | 52 | 200 | 0.0 | 0.0 | 0.00 | 0.00 | 0.00 | 98 | 1021.7 |
| 20260901060053 | 52 | 188 | 0.0 | 1.0 | 0.00 | 0.00 | 0.00 | 98 | 1021.6 |
| 20260901054604 | 51 | 189 | 0.0 | 1.0 | 0.00 | 0.00 | 0.00 | 98 | 1021.5 |
| 20260901053119 | 51 | 202 | 0.0 | 1.0 | 0.00 | 0.00 | 0.00 | 97 | 1021.5 |
| 20260901051550 | 51 | 198 | 0.0 | 0.0 | 0.00 | 0.00 | 0.00 | 97 | 1021.5 |
| 20260901050059 | 51 | 205 | 0.0 | 2.0 | 0.00 | 0.00 | 0.00 | 97 | 1021.5 |
| 20260901044559 | 52 | 201 | 0.0 | 3.0 | 0.00 | 0.00 | 0.00 | 97 | 1021.3 |
| 20260901043101 | 52 | 194 | 0.0 | 1.0 | 0.00 | 0.00 | 0.00 | 97 | 1021.1 |
| 20260901041609 | 52 | 205 | 0.0 | 3.0 | 0.00 | 0.00 | 0.00 | 97 | 1021.1 |
| 20260901040104 | 52 | 203 | 0.0 | 0.0 | 0.00 | 0.00 | 0.00 | 97 | 1021.1 |
| 20260901034544 | 53 | 192 | 0.0 | 0.0 | 0.00 | 0.00 | 0.00 | 96 | 1021.1 |
| 20260901033120 | 53 | 165 | 0.0 | 0.0 | 0.00 | 0.00 | 0.00 | 96 | 1021.1 |
| 20260901031612 | 53 | 182 | 0.0 | 0.0 | 0.00 | 0.00 | 0.00 | 96 | 1021.2 |
| 20260901030100 | 54 | 191 | 0.0 | 0.0 | 0.00 | 0.00 | 0.00 | 96 | 1021.2 |
| 20260901024605 | 54 | 182 | 0.0 | 0.0 | 0.00 | 0.01 | 0.00 | 95 | 1021.4 |
| 20260901023106 | 54 | 167 | 0.0 | 0.0 | 0.00 | 0.01 | 0.00 | 95 | 1021.4 |
| 20260901021551 | 55 | 190 | 0.0 | 1.0 | 0.00 | 0.01 | 0.00 | 95 | 1021.6 |
| 20260901020054 | 55 | 187 | 0.0 | 1.0 | 0.00 | 0.01 | 0.00 | 95 | 1021.6 |
| 20260901014549 | 55 | 186 | 0.0 | 1.0 | 0.00 | 0.01 | 0.00 | 95 | 1021.5 |
| 20260901013050 | 56 | 167 | 0.0 | 0.0 | 0.00 | 0.01 | 0.00 | 95 | 1021.5 |
| 20260901011545 | 55 | 186 | 0.0 | 0.0 | 0.00 | 0.01 | 0.00 | 95 | 1021.3 |
| 20260901010108 | 55 | 186 | 0.0 | 0.0 | 0.00 | 0.01 | 0.00 | 95 | 1021.3 |
| 20260901004542 | 56 | 186 | 0.0 | 0.0 | 0.00 | 0.01 | 0.00 | 94 | 1021.3 |
| 20260901003100 | 57 | 186 | 0.0 | 0.0 | 0.00 | 0.01 | 0.00 | 93 | 1021.3 |
| 20260901001608 | 57 | 186 | 0.0 | 1.0 | 0.00 | 0.01 | 0.00 | 93 | 1021.4 |
| 20260901000049 | 58 | 176 | 0.0 | 1.0 | 0.00 | 0.01 | 0.00 | 92 | 1021.3 |
| 20260831234605 | 58 | 217 | 0.0 | 1.0 | 0.00 | 0.01 | 0.00 | 92 | 1021.4 |
| 20260831233105 | 59 | 221 | 0.0 | 1.0 | 0.00 | 0.01 | 0.00 | 92 | 1021.5 |
| 20260831231546 | 59 | 259 | 0.0 | 1.0 | 0.00 | 0.01 | 0.00 | 92 | 1021.5 |
| 20260831230141 | 59 | 248 | 0.0 | 2.0 | 0.00 | 0.01 | 0.00 | 92 | 1021.4 |
| 20260831224552 | 59 | 251 | 0.0 | 0.0 | 0.00 | 0.01 | 0.00 | 91 | 1021.4 |
| 20260831223106 | 59 | 248 | 0.0 | 1.0 | 0.00 | 0.01 | 0.00 | 91 | 1021.4 |
| 20260831221603 | 60 | 243 | 0.0 | 1.0 | 0.00 | 0.01 | 0.00 | 90 | 1021.4 |
| 20260831220047 | 60 | 228 | 0.0 | 0.0 | 0.00 | 0.01 | 0.00 | 90 | 1021.2 |
| 20260831214555 | 61 | 227 | 0.0 | 0.0 | 0.00 | 0.01 | 0.01 | 88 | 1021.3 |
| 20260831213105 | 61 | 243 | 0.0 | 1.0 | 0.00 | 0.01 | 0.01 | 88 | 1021.2 |
| 20260831211602 | 61 | 220 | 0.0 | 1.0 | 0.00 | 0.01 | 0.01 | 88 | 1021.3 |
| 20260831210048 | 62 | 223 | 0.0 | 1.0 | 0.00 | 0.01 | 0.01 | 87 | 1021.2 |
| 20260831204556 | 62 | 223 | 0.0 | 1.0 | 0.00 | 0.01 | 0.01 | 87 | 1021.1 |
| 20260831203101 | 62 | 219 | 0.0 | 0.0 | 0.00 | 0.01 | 0.01 | 87 | 1021.1 |
| 20260831201608 | 62 | 220 | 0.0 | 1.0 | 0.00 | 0.01 | 0.01 | 85 | 1021.0 |
| 20260831200106 | 63 | 190 | 0.0 | 2.0 | 0.00 | 0.01 | 0.01 | 83 | 1020.9 |
| 20260831194638 | 64 | 182 | 0.0 | 0.0 | 0.00 | 0.01 | 0.01 | 80 | 1020.7 |
| 20260831193108 | 65 | 185 | 0.0 | 0.0 | 0.00 | 0.01 | 0.01 | 79 | 1020.6 |